Olathe, KS

3:20 AM CST on January 21, 2017 (GMT -0600)
Olathe

Weather History for KOJC - March, 2012

Change the Weather History Date:

Saturday, March 10, 2012

  Actual Average Record
Temperature  
Mean Temperature 48 °F 43 °F  
Max Temperature 63 °F 53 °F 83 °F (1967)
Min Temperature 33 °F 32 °F 5 °F (1998)
Degree Days  
Heating Degree Days 17 22  
Month to date heating degree days 182 239  
Since 1 July heating degree days 3539 4132  
Cooling Degree Days 0 0  
Month to date cooling degree days 0 0  
Year to date cooling degree days 0 0  
Moisture  
Dew Point 29 °F    
Average Humidity 49    
Maximum Humidity 70    
Minimum Humidity 27    
Precipitation  
Precipitation 0.00 in 0.09 in 0.96 in (1952)
Month to date precipitation 0.40 0.86  
Year to date precipitation 0.99 3.55  
Sea Level Pressure  
Sea Level Pressure 30.28 in    
Wind  
Wind Speed 8 mph (South)    
Max Wind Speed 20 mph    
Max Gust Speed 25 mph    
Visibility 10 miles    
Events      
T = Trace of Precipitation, MM = Missing Value Source: NWS Daily Summary

Daily Weather History Graph

Daily Weather History Graph

Search for Another Location

Airport or City:

Trip Planner

Search our weather history database for the weather conditions in past years. The results will help you decide how hot, cold, wet, or windy it might be!

Date:

Astronomy

Mar. 10, 2012 Rise Set
Actual Time 6:37 AM CST 6:21 PM CST
Civil Twilight 6:10 AM CST 6:48 PM CST
Nautical Twilight 5:39 AM CST 7:19 PM CST
Astronomical Twilight 5:08 AM CST 7:50 PM CST
Moon 9:32 PM CST (3/10) 7:35 AM CST (3/10)
Length of Visible Light 12h 37m
Length of Day
11h 44m
Waning Gibbous, 92% of the Moon is Illuminated
Mar 10
Waning Gibbous
Mar 14
Last Quarter
Mar 22
New
Mar 30
First Quarter
Apr 6
Full

Hourly Weather History & Observations

Time (CST) Temp. Windchill Dew Point Humidity Pressure Visibility Wind Dir Wind Speed Gust Speed Precip Events Conditions
12:53 AM 39.0 °F 36.8 °F 27.0 °F 62% 30.40 in 10.0 mi South 3.5 mph - N/A   Unknown
1:53 AM 39.0 °F 36.8 °F 27.0 °F 62% 30.38 in 10.0 mi South 3.5 mph - N/A   Unknown
2:53 AM 39.0 °F 36.8 °F 26.1 °F 60% 30.36 in 10.0 mi South 3.5 mph - N/A   Unknown
3:53 AM 37.9 °F 35.5 °F 26.1 °F 62% 30.35 in 10.0 mi South 3.5 mph - N/A   Unknown
4:53 AM 36.0 °F - 27.0 °F 70% 30.35 in 10.0 mi Calm Calm - N/A   Unknown
5:53 AM 36.0 °F 33.3 °F 26.1 °F 67% 30.36 in 10.0 mi South 3.5 mph - N/A   Unknown
6:53 AM 34.0 °F 29.8 °F 25.0 °F 70% 30.36 in 10.0 mi SSE 4.6 mph - N/A   Clear
7:53 AM 37.9 °F 33.5 °F 28.9 °F 70% 30.37 in 10.0 mi South 5.8 mph - N/A   Clear
8:53 AM 46.9 °F - 30.0 °F 52% 30.38 in 10.0 mi South 9.2 mph - N/A   Clear
9:53 AM 53.1 °F - 30.0 °F 41% 30.37 in 10.0 mi South 12.7 mph - N/A   Clear
10:53 AM 57.0 °F - 30.0 °F 36% 30.36 in 10.0 mi SSW 15.0 mph 20.7 mph N/A   Clear
11:53 AM 59.0 °F - 30.0 °F 33% 30.33 in 10.0 mi SSW 18.4 mph 24.2 mph N/A   Clear
12:53 PM 62.1 °F - 30.9 °F 31% 30.29 in 10.0 mi SW 15.0 mph 20.7 mph N/A   Clear
1:53 PM 62.1 °F - 30.0 °F 30% 30.25 in 10.0 mi South 15.0 mph 23.0 mph N/A   Clear
2:53 PM 62.1 °F - 30.0 °F 30% 30.21 in 10.0 mi SSW 12.7 mph 19.6 mph N/A   Clear
3:53 PM 62.1 °F - 30.0 °F 30% 30.19 in 10.0 mi SSW 11.5 mph 18.4 mph N/A   Clear
4:53 PM 62.1 °F - 28.9 °F 29% 30.18 in 10.0 mi SSW 12.7 mph - N/A   Clear
5:53 PM 59.0 °F - 30.0 °F 33% 30.19 in 10.0 mi South 8.1 mph - N/A   Clear
6:53 PM 55.9 °F - 30.9 °F 39% 30.18 in 10.0 mi SSE 6.9 mph - N/A   Clear
7:53 PM 53.1 °F - 30.9 °F 43% 30.18 in 10.0 mi SSE 6.9 mph - N/A   Clear
8:53 PM 52.0 °F - 30.0 °F 43% 30.16 in 10.0 mi SSE 5.8 mph - N/A   Clear
9:53 PM 50.0 °F - 30.0 °F 46% 30.16 in 10.0 mi SSE 4.6 mph - N/A   Clear
11:53 PM 48.0 °F - 30.0 °F 50% 30.14 in 10.0 mi SSE 6.9 mph - N/A   Clear